Time,TemperatureF,DewpointF,PressureIn,WindDirection,WindDirectionDegrees,WindSpeedMPH,WindSpeedGustMPH,Humidity,HourlyPrecipIn,Conditions,Clouds,dailyrainin,SoftwareType,DateUTC
2013-04-29 00:02:00,59.0,52.0,29.79,SSE,149,2.0,5.0,77,0.00,,,0.00,,2013-04-29 05:02:00,
2013-04-29 00:12:00,59.0,52.0,29.79,SSE,149,2.0,5.0,77,0.00,,,0.00,,2013-04-29 05:12:00,
2013-04-29 00:22:00,58.0,52.0,29.78,SE,146,1.0,5.0,79,0.00,,,0.00,,2013-04-29 05:22:00,
2013-04-29 00:32:00,58.0,52.0,29.78,SSE,147,2.0,5.0,79,0.00,,,0.00,,2013-04-29 05:32:00,
2013-04-29 00:42:00,58.0,52.0,29.78,SSE,147,2.0,5.0,79,0.00,,,0.00,,2013-04-29 05:42:00,
2013-04-29 00:52:00,58.0,52.0,29.79,SE,146,0.0,3.0,80,0.00,,,0.00,,2013-04-29 05:52:00,
2013-04-29 01:02:00,57.0,51.0,29.79,SE,146,0.0,0.0,81,0.00,,,0.00,,2013-04-29 06:02:00,
2013-04-29 01:11:00,57.0,51.0,29.79,SE,146,0.0,0.0,81,0.00,,,0.00,,2013-04-29 06:11:00,
2013-04-29 01:21:00,57.0,52.0,29.79,SE,146,0.0,1.0,82,0.00,,,0.00,,2013-04-29 06:21:00,
2013-04-29 01:32:00,56.0,51.0,29.79,SE,146,1.0,2.0,83,0.00,,,0.00,,2013-04-29 06:32:00,
2013-04-29 01:42:00,56.0,51.0,29.79,SE,146,1.0,2.0,83,0.00,,,0.00,,2013-04-29 06:42:00,
2013-04-29 01:52:00,56.0,51.0,29.78,SE,146,0.0,1.0,83,0.00,,,0.00,,2013-04-29 06:52:00,
2013-04-29 02:01:00,56.0,51.0,29.78,SE,146,0.0,0.0,84,0.00,,,0.00,,2013-04-29 07:01:00,
2013-04-29 02:11:00,56.0,51.0,29.78,SE,146,0.0,0.0,84,0.00,,,0.00,,2013-04-29 07:11:00,
2013-04-29 02:21:00,55.0,50.0,29.78,SSE,150,0.0,2.0,84,0.00,,,0.00,,2013-04-29 07:21:00,
2013-04-29 02:32:00,55.0,51.0,29.77,SSE,150,0.0,0.0,85,0.00,,,0.00,,2013-04-29 07:32:00,
2013-04-29 02:41:00,55.0,51.0,29.77,SSE,150,0.0,0.0,85,0.00,,,0.00,,2013-04-29 07:41:00,
2013-04-29 02:52:00,55.0,51.0,29.77,SSE,150,0.0,0.0,87,0.00,,,0.00,,2013-04-29 07:52:00,
2013-04-29 03:02:00,55.0,51.0,29.76,SSE,150,0.0,0.0,85,0.00,,,0.00,,2013-04-29 08:02:00,
2013-04-29 03:11:00,55.0,51.0,29.76,SSE,150,0.0,0.0,85,0.00,,,0.00,,2013-04-29 08:11:00,
2013-04-29 03:21:00,54.0,50.0,29.76,SSE,150,0.0,0.0,86,0.00,,,0.00,,2013-04-29 08:21:00,
2013-04-29 03:31:00,54.0,50.0,29.76,SSE,150,0.0,0.0,87,0.00,,,0.00,,2013-04-29 08:31:00,
2013-04-29 03:42:00,54.0,50.0,29.76,SSE,150,0.0,0.0,87,0.00,,,0.00,,2013-04-29 08:42:00,
2013-04-29 03:52:00,53.0,50.0,29.76,SSE,150,0.0,0.0,88,0.00,,,0.00,,2013-04-29 08:52:00,
2013-04-29 04:01:00,53.0,50.0,29.76,SSE,150,0.0,0.0,88,0.00,,,0.00,,2013-04-29 09:01:00,
2013-04-29 04:12:00,53.0,50.0,29.76,SSE,150,0.0,0.0,88,0.00,,,0.00,,2013-04-29 09:12:00,
2013-04-29 04:21:00,53.0,50.0,29.76,SSE,150,0.0,0.0,88,0.00,,,0.00,,2013-04-29 09:21:00,
2013-04-29 04:32:00,53.0,50.0,29.76,SSE,150,0.0,0.0,88,0.00,,,0.00,,2013-04-29 09:32:00,
2013-04-29 04:42:00,53.0,50.0,29.76,SSE,150,0.0,0.0,88,0.00,,,0.00,,2013-04-29 09:42:00,
2013-04-29 04:53:00,53.0,50.0,29.76,SSE,150,0.0,1.0,88,0.00,,,0.00,,2013-04-29 09:53:00,
2013-04-29 05:02:00,53.0,50.0,29.76,SSE,150,2.0,4.0,88,0.00,,,0.00,,2013-04-29 10:02:00,
2013-04-29 05:12:00,53.0,50.0,29.76,SSE,150,2.0,4.0,88,0.00,,,0.00,,2013-04-29 10:12:00,
2013-04-29 05:23:00,55.0,51.0,29.76,South,170,3.0,6.0,85,0.00,,,0.00,,2013-04-29 10:23:00,
2013-04-29 05:32:00,55.0,50.0,29.76,South,176,3.0,6.0,84,0.00,,,0.00,,2013-04-29 10:32:00,
2013-04-29 05:42:00,55.0,50.0,29.76,South,176,3.0,6.0,84,0.00,,,0.00,,2013-04-29 10:42:00,
2013-04-29 05:52:00,56.0,51.0,29.76,SSW,209,2.0,4.0,84,0.00,,,0.00,,2013-04-29 10:52:00,
2013-04-29 06:02:00,56.0,51.0,29.76,South,174,3.0,6.0,83,0.00,,,0.00,,2013-04-29 11:02:00,
2013-04-29 06:12:00,56.0,51.0,29.76,South,174,3.0,6.0,83,0.00,,,0.00,,2013-04-29 11:12:00,
2013-04-29 06:21:00,56.0,51.0,29.75,South,182,3.0,5.0,83,0.00,,,0.00,,2013-04-29 11:21:00,
2013-04-29 06:32:00,56.0,51.0,29.75,South,181,4.0,7.0,83,0.00,,,0.00,,2013-04-29 11:32:00,
2013-04-29 06:41:00,56.0,51.0,29.75,South,181,4.0,7.0,83,0.00,,,0.00,,2013-04-29 11:41:00,
2013-04-29 06:52:00,55.0,50.0,29.75,South,169,4.0,7.0,83,0.00,,,0.00,,2013-04-29 11:52:00,
2013-04-29 07:01:00,56.0,51.0,29.75,South,170,3.0,8.0,83,0.00,,,0.00,,2013-04-29 12:01:00,
2013-04-29 07:12:00,56.0,51.0,29.75,South,170,3.0,8.0,83,0.00,,,0.00,,2013-04-29 12:12:00,
2013-04-29 07:22:00,56.0,51.0,29.75,SSE,167,4.0,10.0,83,0.00,,,0.00,,2013-04-29 12:22:00,
2013-04-29 07:31:00,56.0,51.0,29.75,South,178,4.0,7.0,83,0.00,,,0.00,,2013-04-29 12:31:00,
2013-04-29 07:41:00,56.0,51.0,29.75,South,178,4.0,7.0,83,0.00,,,0.00,,2013-04-29 12:41:00,
2013-04-29 07:52:00,58.0,53.0,29.75,South,188,5.0,10.0,82,0.00,,,0.00,,2013-04-29 12:52:00,
2013-04-29 08:01:00,58.0,53.0,29.75,South,179,3.0,8.0,82,0.00,,,0.00,,2013-04-29 13:01:00,
2013-04-29 08:11:00,58.0,53.0,29.75,South,179,3.0,8.0,82,0.00,,,0.00,,2013-04-29 13:11:00,
2013-04-29 08:21:00,60.0,54.0,29.75,SSW,192,3.0,7.0,80,0.00,,,0.00,,2013-04-29 13:21:00,
2013-04-29 08:31:00,61.0,54.0,29.75,SSW,194,5.0,7.0,78,0.00,,,0.00,,2013-04-29 13:31:00,
2013-04-29 08:42:00,61.0,54.0,29.75,SSW,194,5.0,7.0,78,0.00,,,0.00,,2013-04-29 13:42:00,
2013-04-29 08:52:00,63.0,55.0,29.74,SSW,194,5.0,9.0,74,0.00,,,0.00,,2013-04-29 13:52:00,
2013-04-29 09:01:00,63.0,54.0,29.75,SSW,201,4.0,10.0,73,0.00,,,0.00,,2013-04-29 14:01:00,
2013-04-29 09:11:00,63.0,54.0,29.75,SSW,201,4.0,10.0,73,0.00,,,0.00,,2013-04-29 14:11:00,
2013-04-29 09:21:00,65.0,55.0,29.74,SSW,213,3.0,8.0,70,0.00,,,0.00,,2013-04-29 14:21:00,
2013-04-29 09:32:00,66.0,55.0,29.73,SSW,193,5.0,9.0,68,0.00,,,0.00,,2013-04-29 14:32:00,
2013-04-29 09:42:00,66.0,55.0,29.73,SSW,193,5.0,9.0,68,0.00,,,0.00,,2013-04-29 14:42:00,
2013-04-29 09:52:00,67.0,55.0,29.73,SW,223,5.0,10.0,66,0.00,,,0.00,,2013-04-29 14:52:00,
2013-04-29 10:01:00,68.0,56.0,29.73,SW,228,4.0,9.0,66,0.00,,,0.00,,2013-04-29 15:01:00,
2013-04-29 10:12:00,68.0,56.0,29.73,SW,228,4.0,9.0,66,0.00,,,0.00,,2013-04-29 15:12:00,
2013-04-29 10:21:00,69.0,56.0,29.73,SW,217,7.0,10.0,64,0.00,,,0.00,,2013-04-29 15:21:00,
2013-04-29 10:33:00,70.0,57.0,29.73,SW,220,8.0,14.0,63,0.00,,,0.00,,2013-04-29 15:33:00,
2013-04-29 10:42:00,70.0,57.0,29.73,SW,220,8.0,14.0,63,0.00,,,0.00,,2013-04-29 15:42:00,
2013-04-29 10:53:00,70.0,56.0,29.73,SW,224,6.0,15.0,62,0.00,,,0.00,,2013-04-29 15:53:00,
2013-04-29 11:02:00,71.0,58.0,29.73,SW,220,3.0,9.0,63,0.00,,,0.00,,2013-04-29 16:02:00,
2013-04-29 11:12:00,71.0,58.0,29.73,SW,220,3.0,9.0,63,0.00,,,0.00,,2013-04-29 16:12:00,
2013-04-29 11:23:00,72.0,58.0,29.73,WSW,255,6.0,12.0,62,0.00,,,0.00,,2013-04-29 16:23:00,
2013-04-29 11:32:00,72.0,58.0,29.73,WSW,258,5.0,9.0,62,0.00,,,0.00,,2013-04-29 16:32:00,
2013-04-29 11:42:00,72.0,58.0,29.73,WSW,258,5.0,9.0,62,0.00,,,0.00,,2013-04-29 16:42:00,
2013-04-29 11:52:00,73.0,58.0,29.72,SW,216,7.0,9.0,59,0.00,,,0.00,,2013-04-29 16:52:00,
2013-04-29 12:02:00,74.0,58.0,29.72,SW,217,5.0,7.0,58,0.00,,,0.00,,2013-04-29 17:02:00,
2013-04-29 12:12:00,74.0,58.0,29.72,SW,217,5.0,7.0,58,0.00,,,0.00,,2013-04-29 17:12:00,
2013-04-29 12:22:00,76.0,59.0,29.71,SSW,201,6.0,10.0,55,0.00,,,0.00,,2013-04-29 17:22:00,
2013-04-29 12:32:00,76.0,60.0,29.71,South,186,2.0,8.0,57,0.00,,,0.00,,2013-04-29 17:32:00,
2013-04-29 12:42:00,76.0,60.0,29.71,South,186,2.0,8.0,57,0.00,,,0.00,,2013-04-29 17:42:00,
2013-04-29 12:52:00,76.0,58.0,29.70,WSW,248,3.0,8.0,54,0.00,,,0.00,,2013-04-29 17:52:00,
2013-04-29 13:01:00,77.0,58.0,29.69,SW,218,4.0,6.0,52,0.00,,,0.00,,2013-04-29 18:01:00,
2013-04-29 13:13:00,77.0,58.0,29.69,SW,218,4.0,6.0,52,0.00,,,0.00,,2013-04-29 18:13:00,
2013-04-29 13:22:00,79.0,59.0,29.68,SW,223,3.0,9.0,51,0.00,,,0.00,,2013-04-29 18:22:00,
2013-04-29 13:32:00,80.0,60.0,29.68,SSE,158,4.0,8.0,50,0.00,,,0.00,,2013-04-29 18:32:00,
2013-04-29 13:42:00,80.0,60.0,29.68,SSE,158,4.0,8.0,50,0.00,,,0.00,,2013-04-29 18:42:00,
2013-04-29 13:52:00,80.0,59.0,29.68,SW,220,6.0,10.0,48,0.00,,,0.00,,2013-04-29 18:52:00,
2013-04-29 14:01:00,79.0,58.0,29.67,South,171,6.0,11.0,49,0.00,,,0.00,,2013-04-29 19:01:00,
2013-04-29 14:11:00,79.0,58.0,29.67,South,171,6.0,11.0,49,0.00,,,0.00,,2013-04-29 19:11:00,
2013-04-29 14:21:00,80.0,59.0,29.67,SSW,204,6.0,11.0,48,0.00,,,0.00,,2013-04-29 19:21:00,
2013-04-29 14:31:00,81.0,59.0,29.66,SSW,200,6.0,11.0,47,0.00,,,0.00,,2013-04-29 19:31:00,
2013-04-29 14:41:00,81.0,59.0,29.66,SSW,200,6.0,11.0,47,0.00,,,0.00,,2013-04-29 19:41:00,
2013-04-29 14:52:00,82.0,61.0,29.65,South,186,3.0,10.0,50,0.00,,,0.00,,2013-04-29 19:52:00,
2013-04-29 15:02:00,82.0,61.0,29.65,SSW,200,4.0,10.0,50,0.00,,,0.00,,2013-04-29 20:02:00,
2013-04-29 15:11:00,82.0,61.0,29.65,SSW,200,4.0,10.0,50,0.00,,,0.00,,2013-04-29 20:11:00,
2013-04-29 15:21:00,83.0,61.0,29.65,SSW,202,6.0,9.0,47,0.00,,,0.00,,2013-04-29 20:21:00,
2013-04-29 15:32:00,83.0,61.0,29.64,South,171,5.0,9.0,48,0.00,,,0.00,,2013-04-29 20:32:00,
2013-04-29 15:42:00,83.0,61.0,29.64,South,171,5.0,9.0,48,0.00,,,0.00,,2013-04-29 20:42:00,
2013-04-29 15:52:00,83.0,61.0,29.63,SSW,211,5.0,10.0,47,0.00,,,0.00,,2013-04-29 20:52:00,
2013-04-29 16:01:00,82.0,61.0,29.62,South,173,5.0,14.0,49,0.00,,,0.00,,2013-04-29 21:01:00,
2013-04-29 16:11:00,82.0,61.0,29.62,South,173,5.0,14.0,49,0.00,,,0.00,,2013-04-29 21:11:00,
2013-04-29 16:21:00,82.0,60.0,29.61,South,187,6.0,12.0,47,0.00,,,0.00,,2013-04-29 21:21:00,
2013-04-29 16:33:00,83.0,61.0,29.61,SSW,197,6.0,15.0,48,0.00,,,0.00,,2013-04-29 21:33:00,
2013-04-29 16:42:00,83.0,61.0,29.61,SSW,197,6.0,15.0,48,0.00,,,0.00,,2013-04-29 21:42:00,
2013-04-29 16:53:00,83.0,62.0,29.60,South,180,5.0,13.0,49,0.00,,,0.00,,2013-04-29 21:53:00,
2013-04-29 17:02:00,82.0,60.0,29.60,SSW,201,7.0,16.0,48,0.00,,,0.00,,2013-04-29 22:02:00,
2013-04-29 17:13:00,82.0,60.0,29.60,SSW,201,7.0,16.0,48,0.00,,,0.00,,2013-04-29 22:13:00,
2013-04-29 17:23:00,83.0,61.0,29.59,South,176,6.0,15.0,47,0.00,,,0.00,,2013-04-29 22:23:00,
2013-04-29 17:32:00,82.0,60.0,29.59,South,172,6.0,11.0,48,0.00,,,0.00,,2013-04-29 22:32:00,
2013-04-29 17:42:00,82.0,60.0,29.59,South,172,6.0,11.0,48,0.00,,,0.00,,2013-04-29 22:42:00,
2013-04-29 17:52:00,82.0,61.0,29.59,South,182,6.0,16.0,49,0.00,,,0.00,,2013-04-29 22:52:00,
2013-04-29 18:02:00,81.0,60.0,29.59,South,180,6.0,10.0,49,0.00,,,0.00,,2013-04-29 23:02:00,
2013-04-29 18:11:00,81.0,60.0,29.59,South,180,6.0,10.0,49,0.00,,,0.00,,2013-04-29 23:11:00,
2013-04-29 18:22:00,81.0,59.0,29.59,South,184,4.0,12.0,48,0.00,,,0.00,,2013-04-29 23:22:00,
2013-04-29 18:32:00,81.0,60.0,29.59,South,169,6.0,11.0,49,0.00,,,0.00,,2013-04-29 23:32:00,
2013-04-29 18:42:00,81.0,60.0,29.59,South,169,6.0,11.0,49,0.00,,,0.00,,2013-04-29 23:42:00,
2013-04-29 18:52:00,81.0,61.0,29.59,SSW,193,4.0,11.0,50,0.00,,,0.00,,2013-04-29 23:52:00,
2013-04-29 19:01:00,81.0,60.0,29.58,SSW,193,4.0,10.0,49,0.00,,,0.00,,2013-04-30 00:01:00,
2013-04-29 19:11:00,81.0,60.0,29.58,SSW,193,4.0,10.0,49,0.00,,,0.00,,2013-04-30 00:11:00,
2013-04-29 19:21:00,81.0,60.0,29.58,SSW,192,5.0,11.0,49,0.00,,,0.00,,2013-04-30 00:21:00,
2013-04-29 19:32:00,81.0,60.0,29.58,South,174,5.0,9.0,49,0.00,,,0.00,,2013-04-30 00:32:00,
2013-04-29 19:41:00,81.0,60.0,29.58,South,174,5.0,9.0,49,0.00,,,0.00,,2013-04-30 00:41:00,
2013-04-29 19:51:00,81.0,61.0,29.58,South,180,6.0,9.0,50,0.00,,,0.00,,2013-04-30 00:51:00,
2013-04-29 20:02:00,79.0,60.0,29.58,South,177,7.0,15.0,53,0.00,,,0.00,,2013-04-30 01:02:00,
2013-04-29 20:11:00,79.0,60.0,29.58,South,177,7.0,15.0,53,0.00,,,0.00,,2013-04-30 01:11:00,
2013-04-29 20:21:00,79.0,61.0,29.58,South,182,5.0,11.0,55,0.00,,,0.00,,2013-04-30 01:21:00,
2013-04-29 20:32:00,77.0,61.0,29.57,South,179,5.0,10.0,57,0.00,,,0.00,,2013-04-30 01:32:00,
2013-04-29 20:41:00,77.0,61.0,29.57,South,179,5.0,10.0,57,0.00,,,0.00,,2013-04-30 01:41:00,
2013-04-29 20:51:00,77.0,61.0,29.58,South,170,4.0,12.0,57,0.00,,,0.00,,2013-04-30 01:51:00,
2013-04-29 21:01:00,76.0,61.0,29.58,SSE,164,5.0,10.0,59,0.00,,,0.00,,2013-04-30 02:01:00,
2013-04-29 21:11:00,75.0,60.0,29.58,South,174,5.0,10.0,60,0.00,,,0.00,,2013-04-30 02:11:00,
2013-04-29 21:21:00,75.0,60.0,29.58,South,174,5.0,10.0,60,0.00,,,0.00,,2013-04-30 02:21:00,
2013-04-29 21:31:00,75.0,61.0,29.57,SSE,157,5.0,8.0,61,0.00,,,0.00,,2013-04-30 02:31:00,
2013-04-29 21:41:00,75.0,61.0,29.57,SSE,157,5.0,8.0,61,0.00,,,0.00,,2013-04-30 02:41:00,
2013-04-29 21:51:00,74.0,59.0,29.57,SSE,153,5.0,9.0,60,0.00,,,0.00,,2013-04-30 02:51:00,
2013-04-29 22:01:00,73.0,59.0,29.58,SE,141,4.0,9.0,62,0.00,,,0.00,,2013-04-30 03:01:00,
2013-04-29 22:11:00,73.0,60.0,29.58,SSE,153,3.0,7.0,63,0.00,,,0.00,,2013-04-30 03:11:00,
2013-04-29 22:21:00,73.0,60.0,29.58,SSE,153,3.0,7.0,63,0.00,,,0.00,,2013-04-30 03:21:00,
2013-04-29 22:33:00,73.0,60.0,29.58,SSE,163,4.0,9.0,64,0.00,,,0.00,,2013-04-30 03:33:00,
2013-04-29 22:42:00,73.0,60.0,29.58,SSE,163,4.0,9.0,64,0.00,,,0.00,,2013-04-30 03:42:00,
2013-04-29 22:52:00,73.0,60.0,29.58,SSE,161,5.0,8.0,64,0.00,,,0.00,,2013-04-30 03:52:00,
2013-04-29 23:02:00,73.0,60.0,29.58,South,173,5.0,10.0,63,0.00,,,0.00,,2013-04-30 04:02:00,
2013-04-29 23:12:00,73.0,59.0,29.58,SSE,162,6.0,9.0,62,0.00,,,0.00,,2013-04-30 04:12:00,
2013-04-29 23:22:00,73.0,59.0,29.58,SSE,162,6.0,9.0,62,0.00,,,0.00,,2013-04-30 04:22:00,
2013-04-29 23:32:00,73.0,59.0,29.58,South,178,6.0,9.0,61,0.00,,,0.00,,2013-04-30 04:32:00,
2013-04-29 23:42:00,73.0,59.0,29.58,South,178,6.0,9.0,61,0.00,,,0.00,,2013-04-30 04:42:00,
2013-04-29 23:52:00,73.0,58.0,29.58,South,173,5.0,10.0,60,0.00,,,0.00,,2013-04-30 04:52:00,